| time (UTC) | temp C | wind direction | speed KPH | gust KPH | rain 1hr cm | rain 24hr cm | rain mn cm | humidity % | barometer mb |
| 20260507220932 | 18 | 163 | 0.0 | 4.8 | 0.00 | 0.03 | 0.03 | 58 | |
| 20260507220430 | 18 | 164 | 0.0 | 4.8 | 0.00 | 0.03 | 0.03 | 61 | |
| 20260507215926 | 18 | 192 | 3.2 | 4.8 | 0.00 | 0.03 | 0.03 | 58 | |
| 20260507215423 | 18 | 170 | 0.0 | 1.6 | 0.00 | 0.03 | 0.03 | 59 | |
| 20260507214920 | 18 | 104 | 0.0 | 3.2 | 0.00 | 0.03 | 0.03 | 61 | |
| 20260507214418 | 17 | 175 | 1.6 | 9.7 | 0.00 | 0.03 | 0.03 | 62 | |
| 20260507213913 | 17 | 79 | 6.4 | 11.3 | 0.00 | 0.03 | 0.03 | 61 | |
| 20260507213410 | 20 | 126 | 1.6 | 1.6 | 0.00 | 0.03 | 0.03 | 51 | |
| 20260507212907 | 19 | 175 | 0.0 | 1.6 | 0.00 | 0.03 | 0.03 | 51 | |
| 20260507212403 | 19 | 159 | 1.6 | 1.6 | 0.00 | 0.03 | 0.03 | 52 | |
| 20260507211900 | 19 | 178 | 1.6 | 1.6 | 0.00 | 0.03 | 0.03 | 51 | |
| 20260507211356 | 18 | 190 | 1.6 | 3.2 | 0.00 | 0.03 | 0.03 | 53 | |
| 20260507210853 | 19 | 224 | 3.2 | 3.2 | 0.00 | 0.03 | 0.03 | 52 | |
| 20260507210350 | 19 | 152 | 0.0 | 3.2 | 0.00 | 0.03 | 0.03 | 51 | |
| 20260507205847 | 19 | 123 | 4.8 | 6.4 | 0.00 | 0.03 | 0.03 | 52 | |
| 20260507205343 | 19 | 221 | 3.2 | 6.4 | 0.00 | 0.03 | 0.03 | 48 | |
| 20260507204840 | 19 | 206 | 3.2 | 4.8 | 0.00 | 0.03 | 0.03 | 50 | |
| 20260507204337 | 20 | 197 | 3.2 | 6.4 | 0.00 | 0.03 | 0.03 | 48 | |
| 20260507203835 | 21 | 163 | 0.0 | 3.2 | 0.00 | 0.03 | 0.03 | 47 | |
| 20260507203333 | 21 | 170 | 0.0 | 3.2 | 0.00 | 0.03 | 0.03 | 46 | |
| 20260507202828 | 20 | 161 | 3.2 | 3.2 | 0.00 | 0.03 | 0.03 | 47 | |
| 20260507202325 | 20 | 167 | 1.6 | 3.2 | 0.00 | 0.03 | 0.03 | 48 | |
| 20260507201820 | 19 | 143 | 0.0 | 1.6 | 0.00 | 0.03 | 0.03 | 51 | |
| 20260507201316 | 18 | 231 | 4.8 | 9.7 | 0.00 | 0.03 | 0.03 | 50 | |
| 20260507200813 | 20 | 194 | 3.2 | 9.7 | 0.00 | 0.03 | 0.03 | 48 | |
| 20260507200309 | 20 | 104 | 1.6 | 6.4 | 0.00 | 0.03 | 0.03 | 48 | |
| 20260507195805 | 18 | 175 | 0.0 | 4.8 | 0.00 | 0.03 | 0.03 | 52 | |
| 20260507195305 | 19 | 260 | 6.4 | 6.4 | 0.00 | 0.03 | 0.03 | 51 | |
| 20260507194800 | 20 | 225 | 0.0 | 4.8 | 0.00 | 0.03 | 0.03 | 49 | |
| 20260507194255 | 21 | 244 | 4.8 | 6.4 | 0.00 | 0.03 | 0.03 | 47 | |
| 20260507193752 | 22 | 162 | 0.0 | 3.2 | 0.00 | 0.03 | 0.03 | 44 | |
| 20260507193249 | 22 | 136 | 0.0 | 1.6 | 0.00 | 0.03 | 0.03 | 41 | |
| 20260507192745 | 22 | 238 | 3.2 | 4.8 | 0.00 | 0.03 | 0.03 | 41 | |
| 20260507192242 | 21 | 137 | 0.0 | 3.2 | 0.00 | 0.03 | 0.03 | 44 | |
| 20260507191738 | 19 | 228 | 1.6 | 4.8 | 0.00 | 0.03 | 0.03 | 47 | |
| 20260507191235 | 20 | 128 | 3.2 | 3.2 | 0.00 | 0.03 | 0.03 | 46 | |
| 20260507190732 | 18 | 161 | 0.0 | 1.6 | 0.00 | 0.03 | 0.03 | 47 | |
| 20260507190231 | 17 | 199 | 1.6 | 4.8 | 0.00 | 0.03 | 0.03 | 50 | |
| 20260507185729 | 18 | 279 | 1.6 | 4.8 | 0.00 | 0.03 | 0.03 | 52 | |
| 20260507185225 | 19 | 163 | 1.6 | 3.2 | 0.00 | 0.03 | 0.03 | 47 | |
| 20260507184723 | 18 | 95 | 8.0 | 12.9 | 0.00 | 0.03 | 0.03 | 48 | |
| 20260507184221 | 20 | 108 | 3.2 | 3.2 | 0.00 | 0.03 | 0.03 | 46 | |
| 20260507183717 | 19 | 180 | 1.6 | 4.8 | 0.00 | 0.03 | 0.03 | 46 | |
| 20260507183214 | 18 | 45 | 8.0 | 14.5 | 0.00 | 0.03 | 0.03 | 47 | |
| 20260507182711 | 20 | 146 | 1.6 | 6.4 | 0.00 | 0.03 | 0.03 | 46 | |
| 20260507182206 | 19 | 111 | 3.2 | 4.8 | 0.00 | 0.03 | 0.03 | 46 | |
| 20260507181703 | 18 | 84 | 11.3 | 12.9 | 0.00 | 0.03 | 0.03 | 48 | |
| 20260507181200 | 20 | 194 | 4.8 | 11.3 | 0.00 | 0.03 | 0.03 | 47 | |
| 20260507180656 | 20 | 120 | 1.6 | 3.2 | 0.00 | 0.03 | 0.03 | 46 | |
| 20260507180153 | 20 | 169 | 0.0 | 4.8 | 0.00 | 0.03 | 0.03 | 48 | |
| 20260507175649 | 20 | 251 | 0.0 | 3.2 | 0.00 | 0.03 | 0.03 | 48 | |
| 20260507175146 | 18 | 170 | 1.6 | 3.2 | 0.00 | 0.03 | 0.03 | 47 | |
| 20260507174643 | 17 | 165 | 0.0 | 3.2 | 0.00 | 0.03 | 0.03 | 47 | |
| 20260507174142 | 17 | 96 | 3.2 | 14.5 | 0.00 | 0.03 | 0.03 | 50 | |
| 20260507173638 | 17 | 75 | 4.8 | 11.3 | 0.00 | 0.03 | 0.03 | 51 | |
| 20260507173135 | 16 | 99 | 4.8 | 6.4 | 0.00 | 0.03 | 0.03 | 50 | |
| 20260507172631 | 16 | 86 | 6.4 | 14.5 | 0.00 | 0.03 | 0.03 | 51 | |
| 20260507172129 | 17 | 89 | 6.4 | 9.7 | 0.00 | 0.03 | 0.03 | 50 | |
| 20260507171624 | 17 | 84 | 9.7 | 14.5 | 0.00 | 0.03 | 0.03 | 48 | |
| 20260507171121 | 21 | 109 | 3.2 | 4.8 | 0.00 | 0.03 | 0.03 | 41 | |
| 20260507170618 | 19 | 185 | 0.0 | 4.8 | 0.00 | 0.03 | 0.03 | 47 | |
| 20260507170115 | 17 | 98 | 1.6 | 3.2 | 0.00 | 0.03 | 0.03 | 47 | |
| 20260507165611 | 17 | 53 | 4.8 | 14.5 | 0.00 | 0.03 | 0.03 | 51 | |
| 20260507165107 | 18 | 103 | 6.4 | 16.1 | 0.00 | 0.03 | 0.03 | 52 | |
| 20260507164603 | 16 | 145 | 1.6 | 9.7 | 0.00 | 0.03 | 0.03 | 49 | |
| 20260507164100 | 17 | 31 | 6.4 | 14.5 | 0.00 | 0.03 | 0.03 | 48 | |
| 20260507163558 | 16 | 90 | 9.7 | 14.5 | 0.00 | 0.03 | 0.03 | 49 | |
| 20260507163056 | 16 | 160 | 0.0 | 4.8 | 0.00 | 0.03 | 0.03 | 49 | |
| 20260507162555 | 17 | 89 | 3.2 | 12.9 | 0.00 | 0.03 | 0.03 | 54 | |
| 20260507162053 | 17 | 130 | 6.4 | 11.3 | 0.00 | 0.03 | 0.03 | 51 | |
| 20260507161549 | 16 | 165 | 0.0 | 1.6 | 0.00 | 0.03 | 0.03 | 52 | |
| 20260507161046 | 15 | 109 | 3.2 | 9.7 | 0.00 | 0.03 | 0.03 | 54 | |
| 20260507160542 | 15 | 53 | 3.2 | 6.4 | 0.00 | 0.03 | 0.03 | 53 | |
| 20260507160038 | 15 | 179 | 3.2 | 11.3 | 0.00 | 0.03 | 0.03 | 53 | |
| 20260507155534 | 15 | 69 | 4.8 | 6.4 | 0.00 | 0.03 | 0.03 | 52 | |
| 20260507155031 | 16 | 66 | 11.3 | 12.9 | 0.00 | 0.03 | 0.03 | 50 | |
| 20260507154528 | 16 | 175 | 4.8 | 6.4 | 0.00 | 0.03 | 0.03 | 50 | |
| 20260507154025 | 15 | 59 | 4.8 | 6.4 | 0.00 | 0.03 | 0.03 | 53 | |
| 20260507153522 | 15 | 70 | 1.6 | 3.2 | 0.00 | 0.03 | 0.03 | 51 | |
| 20260507153018 | 15 | 255 | 6.4 | 9.7 | 0.00 | 0.03 | 0.03 | 58 | |
| 20260507152514 | 15 | 92 | 0.0 | 4.8 | 0.00 | 0.03 | 0.03 | 56 | |
| 20260507152010 | 13 | 89 | 9.7 | 17.7 | 0.00 | 0.03 | 0.03 | 57 | |
| 20260507151507 | 14 | 69 | 4.8 | 17.7 | 0.00 | 0.03 | 0.03 | 60 | |
| 20260507151004 | 14 | 59 | 3.2 | 6.4 | 0.00 | 0.03 | 0.03 | 56 | |
| 20260507150500 | 13 | 74 | 9.7 | 16.1 | 0.00 | 0.03 | 0.03 | 59 | |
| 20260507145956 | 13 | 83 | 1.6 | 9.7 | 0.00 | 0.03 | 0.03 | 59 | |
| 20260507145452 | 13 | 49 | 3.2 | 6.4 | 0.00 | 0.03 | 0.03 | 59 | |
| 20260507144950 | 13 | 79 | 8.0 | 11.3 | 0.00 | 0.03 | 0.03 | 64 | |
| 20260507144446 | 13 | 92 | 6.4 | 6.4 | 0.00 | 0.03 | 0.03 | 63 | |
| 20260507143943 | 13 | 91 | 8.0 | 9.7 | 0.00 | 0.03 | 0.03 | 62 | |
| 20260507143441 | 12 | 65 | 0.0 | 9.7 | 0.00 | 0.03 | 0.03 | 65 | |
| 20260507142937 | 12 | 97 | 6.4 | 11.3 | 0.00 | 0.03 | 0.03 | 65 | |
| 20260507142433 | 12 | 79 | 1.6 | 6.4 | 0.00 | 0.03 | 0.03 | 66 | |
| 20260507141931 | 12 | 148 | 3.2 | 11.3 | 0.00 | 0.03 | 0.03 | 68 | |
| 20260507141426 | 12 | 72 | 3.2 | 4.8 | 0.00 | 0.03 | 0.03 | 68 | |
| 20260507140923 | 12 | 85 | 3.2 | 6.4 | 0.00 | 0.03 | 0.03 | 70 | |
| 20260507140420 | 12 | 146 | 1.6 | 6.4 | 0.00 | 0.03 | 0.03 | 73 | |
| 20260507135918 | 11 | 52 | 3.2 | 4.8 | 0.00 | 0.03 | 0.03 | 71 | |
| 20260507135414 | 11 | 109 | 1.6 | 4.8 | 0.00 | 0.03 | 0.03 | 72 | |
| 20260507134912 | 11 | 66 | 1.6 | 9.7 | 0.00 | 0.03 | 0.03 | 72 | |
| 20260507134408 | 11 | 141 | 1.6 | 3.2 | 0.00 | 0.03 | 0.03 | 71 | |
| 20260507133904 | 11 | 72 | 1.6 | 3.2 | 0.00 | 0.03 | 0.03 | 72 | |
| 20260507133400 | 11 | 144 | 0.0 | 4.8 | 0.00 | 0.03 | 0.03 | 72 | |
| 20260507132859 | 11 | 93 | 1.6 | 3.2 | 0.00 | 0.03 | 0.03 | 74 | |
| 20260507132355 | 11 | 40 | 3.2 | 6.4 | 0.00 | 0.03 | 0.03 | 72 | |
| 20260507131852 | 11 | 94 | 1.6 | 6.4 | 0.00 | 0.03 | 0.03 | 73 | |
| 20260507131348 | 11 | 74 | 1.6 | 6.4 | 0.00 | 0.03 | 0.03 | 74 | |
| 20260507130845 | 11 | 117 | 3.2 | 4.8 | 0.00 | 0.03 | 0.03 | 74 | |
| 20260507130342 | 11 | 74 | 3.2 | 4.8 | 0.00 | 0.03 | 0.03 | 74 | |
| 20260507125842 | 11 | 124 | 0.0 | 3.2 | 0.00 | 0.03 | 0.03 | 75 | |
| 20260507125338 | 11 | 12 | 6.4 | 9.7 | 0.00 | 0.03 | 0.03 | 75 | |
| 20260507124836 | 11 | 65 | 3.2 | 4.8 | 0.00 | 0.03 | 0.03 | 75 | |
| 20260507124332 | 11 | 60 | 3.2 | 9.7 | 0.00 | 0.03 | 0.03 | 75 | |
| 20260507123831 | 11 | 54 | 4.8 | 11.3 | 0.00 | 0.03 | 0.03 | 76 | |
| 20260507123327 | 11 | 55 | 4.8 | 9.7 | 0.00 | 0.03 | 0.03 | 77 | |
| 20260507122823 | 12 | 54 | 1.6 | 4.8 | 0.00 | 0.03 | 0.03 | 77 | |
| 20260507122319 | 12 | 11 | 6.4 | 9.7 | 0.00 | 0.03 | 0.03 | 79 | |
| 20260507121815 | 12 | 100 | 1.6 | 6.4 | 0.00 | 0.03 | 0.03 | 81 | |
| 20260507121311 | 12 | 68 | 1.6 | 3.2 | 0.00 | 0.03 | 0.03 | 83 | |
| 20260507120808 | 12 | 171 | 1.6 | 4.8 | 0.00 | 0.03 | 0.03 | 83 | |
| 20260507120304 | 12 | 354 | 3.2 | 4.8 | 0.00 | 0.03 | 0.03 | 86 | |
| 20260507115801 | 12 | 153 | 3.2 | 4.8 | 0.00 | 0.03 | 0.03 | 85 | |
| 20260507115256 | 11 | 90 | 0.0 | 3.2 | 0.00 | 0.03 | 0.03 | 85 | |
| 20260507114752 | 12 | 97 | 0.0 | 3.2 | 0.00 | 0.03 | 0.03 | 86 | |
| 20260507114250 | 11 | 171 | 1.6 | 1.6 | 0.00 | 0.03 | 0.03 | 86 | |
| 20260507113747 | 11 | 148 | 0.0 | 3.2 | 0.00 | 0.03 | 0.03 | 86 | |
| 20260507113244 | 12 | 37 | 3.2 | 4.8 | 0.00 | 0.03 | 0.03 | 86 | |
| 20260507112742 | 11 | 158 | 0.0 | 3.2 | 0.00 | 0.03 | 0.03 | 86 | |
| 20260507112238 | 11 | 132 | 1.6 | 3.2 | 0.00 | 0.03 | 0.03 | 87 | |
| 20260507111736 | 11 | 120 | 1.6 | 3.2 | 0.00 | 0.03 | 0.03 | 87 | |
| 20260507111232 | 11 | 136 | 0.0 | 0.0 | 0.00 | 0.03 | 0.03 | 88 | |
| 20260507110728 | 11 | 165 | 0.0 | 1.6 | 0.00 | 0.03 | 0.03 | 88 | |
| 20260507110225 | 11 | 164 | 0.0 | 3.2 | 0.00 | 0.03 | 0.03 | 87 | |
| 20260507105722 | 11 | 100 | 3.2 | 3.2 | 0.00 | 0.03 | 0.03 | 87 | |
| 20260507105218 | 11 | 217 | 3.2 | 3.2 | 0.00 | 0.03 | 0.03 | 88 | |
| 20260507104716 | 11 | 165 | 0.0 | 3.2 | 0.00 | 0.03 | 0.03 | 88 | |
| 20260507104212 | 11 | 120 | 1.6 | 3.2 | 0.00 | 0.03 | 0.03 | 88 | |
| 20260507103708 | 11 | 168 | 0.0 | 0.0 | 0.00 | 0.03 | 0.03 | 89 | |
| 20260507103204 | 11 | 186 | 0.0 | 0.0 | 0.00 | 0.03 | 0.03 | 89 | |
| 20260507102701 | 11 | 168 | 0.0 | 0.0 | 0.00 | 0.03 | 0.03 | 89 | |
| 20260507102158 | 11 | 203 | 1.6 | 1.6 | 0.00 | 0.03 | 0.03 | 91 | |
| 20260507101653 | 11 | 142 | 0.0 | 0.0 | 0.00 | 0.03 | 0.03 | 90 | |
| 20260507101149 | 11 | 148 | 0.0 | 0.0 | 0.00 | 0.03 | 0.03 | 89 | |
| 20260507100647 | 11 | 169 | 0.0 | 3.2 | 0.00 | 0.03 | 0.03 | 90 | |
| 20260507100145 | 11 | 130 | 0.0 | 1.6 | 0.00 | 0.03 | 0.03 | 90 | |
| 20260507095643 | 11 | 155 | 0.0 | 0.0 | 0.00 | 0.03 | 0.03 | 89 | |
| 20260507095139 | 11 | 181 | 1.6 | 1.6 | 0.00 | 0.03 | 0.03 | 89 | |
| 20260507094635 | 11 | 194 | 1.6 | 4.8 | 0.00 | 0.03 | 0.03 | 88 | |
| 20260507094132 | 11 | 188 | 1.6 | 1.6 | 0.00 | 0.03 | 0.03 | 89 | |
| 20260507093629 | 11 | 150 | 0.0 | 0.0 | 0.00 | 0.03 | 0.03 | 90 | |
| 20260507093128 | 11 | 151 | 0.0 | 0.0 | 0.00 | 0.03 | 0.03 | 91 | |
| 20260507092624 | 11 | 171 | 0.0 | 0.0 | 0.00 | 0.03 | 0.03 | 91 | |
| 20260507092121 | 11 | 126 | 0.0 | 0.0 | 0.00 | 0.03 | 0.03 | 91 | |
| 20260507091618 | 11 | 159 | 0.0 | 0.0 | 0.00 | 0.03 | 0.03 | 92 | |
| 20260507091114 | 11 | 157 | 0.0 | 0.0 | 0.00 | 0.03 | 0.03 | 92 | |
| 20260507090610 | 11 | 163 | 0.0 | 0.0 | 0.00 | 0.03 | 0.03 | 93 | |
| 20260507090107 | 11 | 164 | 0.0 | 1.6 | 0.00 | 0.03 | 0.03 | 93 | |
| 20260507085604 | 11 | 180 | 1.6 | 1.6 | 0.00 | 0.03 | 0.03 | 93 | |
| 20260507085100 | 11 | 212 | 1.6 | 3.2 | 0.00 | 0.03 | 0.03 | 94 | |
| 20260507084557 | 11 | 167 | 0.0 | 0.0 | 0.00 | 0.03 | 0.03 | 94 | |
| 20260507084054 | 11 | 157 | 0.0 | 0.0 | 0.00 | 0.03 | 0.03 | 93 | |
| 20260507083550 | 11 | 157 | 0.0 | 0.0 | 0.00 | 0.03 | 0.03 | 92 | |
| 20260507083048 | 11 | 157 | 0.0 | 0.0 | 0.00 | 0.03 | 0.03 | 91 | |
| 20260507082544 | 11 | 157 | 0.0 | 0.0 | 0.00 | 0.03 | 0.03 | 90 | |
| 20260507082041 | 11 | 175 | 0.0 | 1.6 | 0.00 | 0.03 | 0.03 | 90 | |
| 20260507081536 | 11 | 169 | 0.0 | 0.0 | 0.00 | 0.03 | 0.03 | 89 | |
| 20260507081034 | 12 | 215 | 1.6 | 3.2 | 0.00 | 0.03 | 0.03 | 91 | |
| 20260507080529 | 11 | 175 | 0.0 | 0.0 | 0.00 | 0.03 | 0.03 | 88 | |
| 20260507080026 | 12 | 158 | 0.0 | 0.0 | 0.00 | 0.03 | 0.03 | 88 | |
| 20260507075521 | 11 | 127 | 1.6 | 1.6 | 0.00 | 0.03 | 0.03 | 87 | |
| 20260507075018 | 11 | 160 | 0.0 | 0.0 | 0.00 | 0.03 | 0.03 | 88 | |
| 20260507074514 | 12 | 172 | 0.0 | 1.6 | 0.00 | 0.03 | 0.03 | 87 | |
| 20260507074013 | 12 | 148 | 0.0 | 1.6 | 0.00 | 0.03 | 0.03 | 87 | |
| 20260507073509 | 12 | 170 | 1.6 | 1.6 | 0.00 | 0.03 | 0.03 | 88 | |
| 20260507073006 | 12 | 134 | 1.6 | 1.6 | 0.00 | 0.03 | 0.03 | 87 | |
| 20260507072503 | 12 | 142 | 0.0 | 1.6 | 0.00 | 0.03 | 0.03 | 87 | |
| 20260507072000 | 12 | 99 | 4.8 | 4.8 | 0.00 | 0.03 | 0.03 | 87 | |
| 20260507071457 | 12 | 106 | 1.6 | 3.2 | 0.00 | 0.03 | 0.03 | 87 | |
| 20260507070954 | 12 | 79 | 0.0 | 3.2 | 0.00 | 0.03 | 0.03 | 87 | |
| 20260507070451 | 12 | 212 | 3.2 | 3.2 | 0.00 | 0.03 | 0.03 | 88 | |
| 20260507065948 | 12 | 72 | 1.6 | 6.4 | 0.00 | 0.03 | 0.03 | 88 | |
| 20260507065444 | 12 | 95 | 1.6 | 9.7 | 0.00 | 0.03 | 0.03 | 89 | |
| 20260507064942 | 11 | 84 | 1.6 | 4.8 | 0.00 | 0.03 | 0.03 | 90 | |
| 20260507064440 | 11 | 318 | 3.2 | 4.8 | 0.00 | 0.03 | 0.03 | 92 | |
| 20260507063937 | 11 | 244 | 6.4 | 6.4 | 0.00 | 0.03 | 0.03 | 92 | |
| 20260507063434 | 12 | 61 | 3.2 | 6.4 | 0.00 | 0.03 | 0.03 | 92 | |
| 20260507062931 | 12 | 133 | 1.6 | 3.2 | 0.00 | 0.03 | 0.03 | 92 | |
| 20260507062429 | 12 | 34 | 3.2 | 6.4 | 0.00 | 0.03 | 0.03 | 92 | |
| 20260507061926 | 12 | 37 | 3.2 | 4.8 | 0.00 | 0.03 | 0.03 | 93 | |
| 20260507061424 | 12 | 106 | 1.6 | 6.4 | 0.00 | 0.03 | 0.03 | 92 | |
| 20260507060922 | 12 | 65 | 3.2 | 4.8 | 0.00 | 0.03 | 0.03 | 92 | |
| 20260507060418 | 12 | 77 | 0.0 | 1.6 | 0.00 | 0.03 | 0.03 | 93 | |
| 20260507055915 | 12 | 211 | 4.8 | 9.7 | 0.18 | 0.03 | 0.03 | 91 | |
| 20260507055410 | 12 | 188 | 4.8 | 6.4 | 0.18 | 0.03 | 0.03 | 90 | |
| 20260507054907 | 13 | 136 | 3.2 | 6.4 | 0.00 | 0.00 | 0.00 | 89 | |
| 20260507054403 | 13 | 154 | 1.6 | 4.8 | 0.00 | 0.00 | 0.00 | 88 | |
| 20260507053901 | 13 | 72 | 1.6 | 11.3 | 0.00 | 0.00 | 0.00 | 88 | |
| 20260507053358 | 13 | 58 | 9.7 | 11.3 | 0.00 | 0.00 | 0.00 | 88 | |
| 20260507052857 | 13 | 139 | 1.6 | 4.8 | 0.00 | 0.00 | 0.00 | 89 | |
| 20260507052354 | 13 | 159 | 0.0 | 3.2 | 0.00 | 0.00 | 0.00 | 88 | |
| 20260507051851 | 13 | 85 | 4.8 | 6.4 | 0.00 | 0.00 | 0.00 | 89 | |
| 20260507051349 | 13 | 99 | 3.2 | 6.4 | 0.00 | 0.00 | 0.00 | 89 | |
| 20260507050845 | 13 | 72 | 1.6 | 11.3 | 0.00 | 0.00 | 0.00 | 90 | |
| 20260507050342 | 13 | 60 | 1.6 | 3.2 | 0.00 | 0.00 | 0.00 | 90 | |
| 20260507045839 | 13 | 65 | 4.8 | 9.7 | 0.00 | 0.00 | 0.00 | 90 | |
| 20260507045335 | 13 | 82 | 4.8 | 11.3 | 0.00 | 0.00 | 0.00 | 89 | |
| 20260507044832 | 13 | 46 | 3.2 | 9.7 | 0.00 | 0.00 | 0.00 | 91 | |
| 20260507044329 | 13 | 216 | 8.0 | 11.3 | 0.00 | 0.00 | 0.00 | 91 | |
| 20260507043825 | 13 | 175 | 8.0 | 12.9 | 0.00 | 0.00 | 0.00 | 93 | |
| 20260507043321 | 13 | 69 | 4.8 | 6.4 | 0.00 | 0.00 | 0.00 | 93 | |
| 20260507042818 | 13 | 265 | 3.2 | 4.8 | 0.00 | 0.00 | 0.00 | 94 | |
| 20260507042314 | 13 | 101 | 0.0 | 1.6 | 0.00 | 0.00 | 0.00 | 95 | |
| 20260507041811 | 13 | 156 | 0.0 | 0.0 | 0.00 | 0.00 | 0.00 | 94 | |
| 20260507041307 | 13 | 241 | 3.2 | 4.8 | 0.00 | 0.00 | 0.00 | 94 | |
| 20260507040805 | 13 | 137 | 3.2 | 6.4 | 0.00 | 0.00 | 0.00 | 94 | |
| 20260507040300 | 13 | 57 | 3.2 | 3.2 | 0.00 | 0.00 | 0.00 | 94 | |
| 20260507035756 | 13 | 107 | 1.6 | 6.4 | 0.00 | 0.48 | 0.48 | 92 | |
| 20260507035252 | 14 | 94 | 9.7 | 16.1 | 0.18 | 0.48 | 0.48 | 91 | |
| 20260507034750 | 14 | 93 | 8.0 | 11.3 | 0.18 | 0.48 | 0.48 | 90 | |
| 20260507034246 | 14 | 53 | 4.8 | 9.7 | 0.00 | 0.46 | 0.46 | 90 | |
| 20260507033745 | 14 | 81 | 4.8 | 4.8 | 0.00 | 0.46 | 0.46 | 91 | |
| 20260507033242 | 14 | 198 | 3.2 | 4.8 | 0.00 | 0.46 | 0.46 | 91 | |
| 20260507032739 | 14 | 202 | 3.2 | 3.2 | 0.00 | 0.46 | 0.46 | 91 | |
| 20260507032235 | 15 | 221 | 1.6 | 3.2 | 0.00 | 0.46 | 0.46 | 91 | |
| 20260507031732 | 15 | 77 | 3.2 | 4.8 | 0.00 | 0.46 | 0.46 | 90 | |
| 20260507031229 | 15 | 51 | 4.8 | 14.5 | 0.00 | 0.46 | 0.46 | 90 | |
| 20260507030725 | 15 | 111 | 1.6 | 3.2 | 0.00 | 0.46 | 0.46 | 89 | |
| 20260507030223 | 15 | 70 | 4.8 | 6.4 | 0.00 | 0.46 | 0.46 | 88 | |
| 20260507025720 | 15 | 63 | 4.8 | 11.3 | 0.00 | 0.46 | 0.46 | 88 | |
| 20260507025217 | 15 | 30 | 6.4 | 6.4 | 0.00 | 0.46 | 0.46 | 92 | |
| 20260507024715 | 15 | 321 | 3.2 | 4.8 | 0.00 | 0.46 | 0.46 | 93 | |
| 20260507024212 | 15 | 250 | 3.2 | 6.4 | 0.00 | 0.46 | 0.46 | 92 | |
| 20260507023707 | 15 | 69 | 1.6 | 3.2 | 0.00 | 0.46 | 0.46 | 93 | |
| 20260507023205 | 15 | 131 | 4.8 | 9.7 | 0.00 | 0.46 | 0.46 | 92 | |
| 20260507022702 | 15 | 162 | 1.6 | 3.2 | 0.00 | 0.46 | 0.46 | 93 | |
| 20260507022158 | 15 | 204 | 1.6 | 4.8 | 0.00 | 0.46 | 0.46 | 93 | |
| 20260507021654 | 16 | 149 | 1.6 | 6.4 | 0.00 | 0.46 | 0.46 | 92 | |
| 20260507021149 | 16 | 129 | 1.6 | 6.4 | 0.13 | 0.46 | 0.46 | 91 | |
| 20260507020648 | 16 | 287 | 3.2 | 4.8 | 0.18 | 0.43 | 0.43 | 90 | |
| 20260507020144 | 17 | 110 | 1.6 | 3.2 | 0.18 | 0.43 | 0.43 | 89 | |
| 20260507015642 | 17 | 199 | 3.2 | 6.4 | 0.00 | 0.41 | 0.41 | 86 | |
| 20260507015139 | 17 | 49 | 6.4 | 12.9 | 0.00 | 0.41 | 0.41 | 87 | |
| 20260507014636 | 17 | 61 | 1.6 | 6.4 | 0.00 | 0.41 | 0.41 | 87 | |
| 20260507014132 | 17 | 255 | 4.8 | 6.4 | 0.00 | 0.41 | 0.41 | 88 | |
| 20260507013629 | 17 | 295 | 3.2 | 9.7 | 0.00 | 0.41 | 0.41 | 88 | |
| 20260507013126 | 17 | 198 | 4.8 | 6.4 | 0.00 | 0.41 | 0.41 | 88 | |
| 20260507012623 | 17 | 62 | 4.8 | 11.3 | 0.00 | 0.41 | 0.41 | 89 | |
| 20260507012118 | 17 | 139 | 3.2 | 3.2 | 0.00 | 0.41 | 0.41 | 89 | |
| 20260507011617 | 17 | 218 | 4.8 | 6.4 | 0.00 | 0.41 | 0.41 | 89 | |
| 20260507011113 | 17 | 135 | 3.2 | 3.2 | 0.00 | 0.41 | 0.41 | 90 | |
| 20260507010608 | 17 | 48 | 1.6 | 6.4 | 0.00 | 0.41 | 0.41 | 90 | |
| 20260507010104 | 17 | 133 | 1.6 | 3.2 | 0.00 | 0.41 | 0.41 | 90 | |
| 20260507005602 | 17 | 16 | 6.4 | 9.7 | 0.00 | 0.41 | 0.41 | 90 | |
| 20260507005057 | 18 | 104 | 6.4 | 11.3 | 0.00 | 0.41 | 0.41 | 91 | |
| 20260507004554 | 18 | 66 | 3.2 | 6.4 | 0.00 | 0.41 | 0.41 | 91 | |
| 20260507004052 | 18 | 83 | 4.8 | 9.7 | 0.00 | 0.41 | 0.41 | 90 | |
| 20260507003548 | 18 | 91 | 1.6 | 6.4 | 0.00 | 0.41 | 0.41 | 91 | |
| 20260507003043 | 18 | 99 | 0.0 | 4.8 | 0.00 | 0.41 | 0.41 | 91 | |
| 20260507002540 | 18 | 203 | 1.6 | 3.2 | 0.00 | 0.41 | 0.41 | 92 | |
| 20260507002036 | 18 | 160 | 0.0 | 3.2 | 0.00 | 0.41 | 0.41 | 92 | |
| 20260507001532 | 18 | 120 | 1.6 | 3.2 | 0.00 | 0.41 | 0.41 | 91 | |
| 20260507001030 | 18 | 79 | 0.0 | 4.8 | 0.00 | 0.41 | 0.41 | 91 | |
| 20260507000526 | 18 | 172 | 3.2 | 12.9 | 0.00 | 0.41 | 0.41 | 92 | |
| 20260507000023 | 18 | 144 | 3.2 | 4.8 | 0.00 | 0.41 | 0.41 | 92 | |
| 20260506235519 | 18 | 192 | 1.6 | 6.4 | 0.00 | 0.41 | 0.41 | 91 | |
| 20260506235015 | 18 | 353 | 3.2 | 4.8 | 0.00 | 0.41 | 0.41 | 91 | |
| 20260506234513 | 19 | 148 | 0.0 | 6.4 | 0.00 | 0.41 | 0.41 | 90 | |
| 20260506234010 | 19 | 86 | 0.0 | 3.2 | 0.00 | 0.41 | 0.41 | 90 | |
| 20260506233506 | 20 | 77 | 1.6 | 9.7 | 0.00 | 0.41 | 0.41 | 89 | |
| 20260506233003 | 20 | 55 | 1.6 | 11.3 | 0.00 | 0.41 | 0.41 | 89 | |
| 20260506232459 | 19 | 68 | 3.2 | 9.7 | 0.00 | 0.41 | 0.41 | 96 | |
| 20260506231955 | 20 | 210 | 3.2 | 4.8 | 0.00 | 0.41 | 0.41 | 97 | |
| 20260506231452 | 20 | 178 | 0.0 | 0.0 | 0.00 | 0.41 | 0.41 | 97 | |
| 20260506230950 | 20 | 191 | 0.0 | 0.0 | 0.00 | 0.41 | 0.41 | 97 | |
| 20260506230446 | 20 | 192 | 1.6 | 3.2 | 0.00 | 0.41 | 0.41 | 96 | |
| 20260506225942 | 20 | 175 | 0.0 | 0.0 | 0.00 | 0.41 | 0.41 | 95 | |
| 20260506225440 | 20 | 175 | 0.0 | 0.0 | 0.00 | 0.41 | 0.41 | 94 | |
| 20260506224937 | 20 | 171 | 0.0 | 0.0 | 0.00 | 0.41 | 0.41 | 94 | |
| 20260506224434 | 20 | 171 | 0.0 | 0.0 | 0.00 | 0.41 | 0.41 | 94 | |
| 20260506223930 | 20 | 136 | 1.6 | 3.2 | 0.00 | 0.41 | 0.41 | 94 | |
| 20260506223426 | 20 | 157 | 1.6 | 3.2 | 0.00 | 0.41 | 0.41 | 92 | |
| 20260506222924 | 20 | 167 | 3.2 | 3.2 | 0.00 | 0.41 | 0.41 | 94 | |
| 20260506222420 | 20 | 183 | 1.6 | 1.6 | 0.00 | 0.41 | 0.41 | 94 | |
| 20260506221917 | 20 | 185 | 0.0 | 3.2 | 0.00 | 0.41 | 0.41 | 94 | |
| 20260506221414 | 21 | 178 | 0.0 | 1.6 | 0.00 | 0.41 | 0.41 | 91 |